User: anonymous   Login
Location: Stara Lesna
(49.1528°N, 20.2911°E)
Time: 13:48:17
(UTC+01:00)
Language:

Cosmos 1656 Rocket - Orbit

View from above orbital plane
View from above orbital plane
View from above satellite
View from above satellite

Ground track
Ground track

The orbit data is extracted from the following two-line orbital elements,

1 15772U 85042D   19320.87197650 -.00000008 +00000-0 +18067-4 0  9994
2 15772 071.1081 273.1752 0033227 112.2027 312.5210 14.21258498786864
Epoch (UTC): 16 November 2019 20:55:38
Eccentricity: 0.0033227
inclination: 71.1081°
perigee height: 797 km
apogee height: 845 km
right ascension of ascending node: 273.1752°
argument of perigee: 112.2027°
revolutions per day: 14.21258498
mean anomaly at epoch: 312.5210°
orbit number at epoch: 78686

The dashed part of the orbit path shows where the satellite is in the earth's shadow,  

DLR